カタログに戻る

THORAD DELTA 1 DEB

運用中SSO
NORAD 8160·DEBRIS·🇺🇸 United States

打ち上げ Nov 15, 1974 から Vandenberg Space Force Base

Loading…

次のパス (今後24時間)

TLE

最新Source: Space-Track

元期: Sep 14, 2026, 08:33 UTC

1 08160U 74089AA  26257.35633179  .00000017  00000-0  33986-3 0  9992
2 08160 101.8411  36.4458 0146411 268.5688 117.5601 12.63552066389123

AllMySatでTHORAD DELTA 1 DEBをリアルタイム追跡

Download on the App Store